ACA813 LPPT-CYUL

Flight info

Callsign ACA813
Flight time N/A
Altitude 38000
Route ELNUB DCT BANAL/M081F380 DCT 4530N02000W 49N030W 50N040W 48N050W DCT NICSO/N0462F380 DCT YYT/N0463F400 DCT JIGGS DCT MIILS DCT KEBIG ROCKT3
Aircraft A333/H-SDE3GHIJ2J3J5M1RVWXY/LB2D1

Departure

Time 2026-04-28 09:48
Airport Lisbon Humberto Delgado Airport (LPPT)

Arrival

Time N/A
Airport Montreal / Pierre Elliott Trudeau International Airport (CYUL)
Time Latitude Longitude Altitude Speed Heading
2026-04-28 09:40 38.77607 -9.13202 330 ft 0 kts 77°
2026-04-28 09:44 38.77597 -9.13257 332 ft 14 kts 76°
2026-04-28 09:44 38.77587 -9.13310 334 ft 0 kts 74°
2026-04-28 09:44 38.77589 -9.13289 333 ft 3 kts 96°
2026-04-28 09:45 38.77563 -9.13264 332 ft 6 kts 174°
2026-04-28 09:45 38.77511 -9.13260 331 ft 12 kts 178°
2026-04-28 09:45 38.77394 -9.13259 332 ft 17 kts 191°
2026-04-28 09:45 38.77307 -9.13413 335 ft 27 kts 258°
2026-04-28 09:46 38.77269 -9.13662 343 ft 26 kts 260°
2026-04-28 09:46 38.77202 -9.13858 348 ft 23 kts 214°
2026-04-28 09:46 38.77064 -9.13953 348 ft 22 kts 197°
2026-04-28 09:46 38.76913 -9.14009 345 ft 22 kts 199°
2026-04-28 09:47 38.76767 -9.14079 343 ft 22 kts 201°
2026-04-28 09:47 38.76638 -9.14179 342 ft 22 kts 230°
2026-04-28 09:47 38.76714 -9.14352 345 ft 41 kts 17°
2026-04-28 09:47 38.77203 -9.14091 353 ft 110 kts 22°
2026-04-28 09:48 38.78109 -9.13603 367 ft 171 kts 23°
2026-04-28 09:48 38.79235 -9.12951 1029 ft 176 kts 25°
2026-04-28 09:48 38.80392 -9.12276 1665 ft 195 kts 27°
2026-04-28 09:48 38.81607 -9.11416 2513 ft 210 kts 29°
2026-04-28 09:49 38.82917 -9.10457 3353 ft 227 kts 30°
2026-04-28 09:49 38.84319 -9.09419 4208 ft 243 kts 30°
2026-04-28 09:49 38.85812 -9.08313 5073 ft 260 kts 30°
2026-04-28 09:49 38.87402 -9.07133 6104 ft 270 kts 30°
2026-04-28 09:50 38.89050 -9.06010 7199 ft 275 kts 19°
2026-04-28 09:50 38.90947 -9.05718 8155 ft 284 kts 353°
2026-04-28 09:50 38.92872 -9.06235 9124 ft 290 kts 349°
2026-04-28 09:50 38.94856 -9.06705 10059 ft 297 kts 350°
2026-04-28 09:51 38.96930 -9.07182 10754 ft 312 kts 350°
2026-04-28 09:51 38.99089 -9.07838 11303 ft 331 kts 337°
2026-04-28 09:51 39.01063 -9.09493 11808 ft 351 kts 315°
2026-04-28 09:51 39.02494 -9.12096 12337 ft 368 kts 294°
2026-04-28 09:52 39.03112 -9.15316 13088 ft 377 kts 272°
2026-04-28 09:52 39.02805 -9.18614 14128 ft 376 kts 256°
2026-04-28 09:52 39.02537 -9.21964 14963 ft 383 kts 272°
2026-04-28 09:52 39.02735 -9.25392 15785 ft 389 kts 272°
2026-04-28 09:53 39.02892 -9.28823 16627 ft 393 kts 272°
2026-04-28 09:53 39.03051 -9.32372 17448 ft 397 kts 272°
2026-04-28 09:53 39.03207 -9.35899 18184 ft 402 kts 272°
2026-04-28 09:53 39.03363 -9.39482 18924 ft 406 kts 271°
2026-04-28 09:54 39.03520 -9.43091 19629 ft 410 kts 271°
2026-04-28 09:54 39.03679 -9.46779 20308 ft 414 kts 271°
2026-04-28 09:54 39.03838 -9.50460 20958 ft 418 kts 271°
2026-04-28 09:54 39.03997 -9.54207 21604 ft 421 kts 271°
2026-04-28 09:55 39.04155 -9.57953 22251 ft 424 kts 271°
2026-04-28 09:55 39.04313 -9.61712 22836 ft 427 kts 271°
2026-04-28 09:55 39.04472 -9.65529 23422 ft 430 kts 270°
2026-04-28 09:55 39.04631 -9.69388 23958 ft 433 kts 270°
2026-04-28 09:56 39.04788 -9.73226 24473 ft 437 kts 270°
2026-04-28 09:56 39.04948 -9.77139 24950 ft 436 kts 270°
2026-04-28 09:56 39.05103 -9.81039 25106 ft 442 kts 270°
2026-04-28 09:56 39.05263 -9.85005 25413 ft 444 kts 270°
2026-04-28 09:57 39.05418 -9.88936 25758 ft 445 kts 270°
2026-04-28 09:57 39.05576 -9.92933 26077 ft 447 kts 270°
2026-04-28 09:57 39.05729 -9.96888 26361 ft 449 kts 270°
2026-04-28 09:57 39.05884 -10.00925 26624 ft 451 kts 270°
2026-04-28 09:58 39.06038 -10.04921 26938 ft 453 kts 270°
2026-04-28 09:58 39.06191 -10.08980 27248 ft 455 kts 270°
2026-04-28 09:58 39.06343 -10.13040 27513 ft 457 kts 270°
2026-04-28 09:58 39.06495 -10.17135 27809 ft 458 kts 270°
2026-04-28 09:59 39.06644 -10.21186 28126 ft 459 kts 270°
2026-04-28 09:59 39.06794 -10.25314 28362 ft 461 kts 270°
2026-04-28 09:59 39.06943 -10.29420 28613 ft 463 kts 270°
2026-04-28 09:59 39.07090 -10.33535 28856 ft 464 kts 270°
2026-04-28 10:00 39.07238 -10.37708 29083 ft 466 kts 270°
2026-04-28 10:00 39.07382 -10.41830 29396 ft 465 kts 270°
2026-04-28 10:00 39.07527 -10.46000 29715 ft 465 kts 270°
2026-04-28 10:00 39.07667 -10.50109 30040 ft 464 kts 270°
2026-04-28 10:01 39.07809 -10.54257 30369 ft 463 kts 270°
2026-04-28 10:01 39.07946 -10.58340 30668 ft 462 kts 270°
2026-04-28 10:01 39.08099 -10.62475 30940 ft 463 kts 272°
2026-04-28 10:01 39.08816 -10.66515 31153 ft 469 kts 288°
2026-04-28 10:02 39.10395 -10.70221 31400 ft 474 kts 304°
2026-04-28 10:02 39.12630 -10.73329 31678 ft 475 kts 312°
2026-04-28 10:02 39.14912 -10.76391 31949 ft 474 kts 310°
2026-04-28 10:02 39.17149 -10.79464 32199 ft 473 kts 310°
2026-04-28 10:03 39.19393 -10.82571 32494 ft 471 kts 310°
2026-04-28 10:03 39.21601 -10.85637 32776 ft 470 kts 310°
2026-04-28 10:03 39.23809 -10.88714 33012 ft 469 kts 310°
2026-04-28 10:03 39.26046 -10.91830 33223 ft 469 kts 310°
2026-04-28 10:04 39.28233 -10.94882 33477 ft 467 kts 310°
2026-04-28 10:04 39.30440 -10.97965 33747 ft 466 kts 310°
2026-04-28 10:04 39.32618 -11.01008 33962 ft 465 kts 310°
2026-04-28 10:04 39.34819 -11.04089 34126 ft 465 kts 310°
2026-04-28 10:05 39.36991 -11.07131 34343 ft 464 kts 310°
2026-04-28 10:05 39.39190 -11.10215 34536 ft 462 kts 310°
2026-04-28 10:05 39.41344 -11.13237 34692 ft 462 kts 310°
2026-04-28 10:05 39.43527 -11.16305 34866 ft 461 kts 310°
2026-04-28 10:06 39.45671 -11.19320 35008 ft 460 kts 310°
2026-04-28 10:06 39.47841 -11.22374 35159 ft 459 kts 310°
2026-04-28 10:06 39.50007 -11.25427 35271 ft 459 kts 310°
2026-04-28 10:06 39.52147 -11.28446 35385 ft 459 kts 310°
2026-04-28 10:07 39.54307 -11.31496 35486 ft 458 kts 311°
2026-04-28 10:07 39.56437 -11.34503 35620 ft 457 kts 311°
2026-04-28 10:07 39.58599 -11.37563 35734 ft 457 kts 311°
2026-04-28 10:07 39.60749 -11.40607 35844 ft 457 kts 311°
2026-04-28 10:08 39.62868 -11.43613 35965 ft 456 kts 311°
2026-04-28 10:08 39.64996 -11.46631 36080 ft 456 kts 311°
2026-04-28 10:08 39.67137 -11.49671 36237 ft 455 kts 311°
2026-04-28 10:08 39.69273 -11.52710 36353 ft 454 kts 311°
2026-04-28 10:09 39.71384 -11.55711 36487 ft 454 kts 311°
2026-04-28 10:09 39.73513 -11.58746 36622 ft 453 kts 311°
2026-04-28 10:09 39.75610 -11.61735 36755 ft 452 kts 311°
2026-04-28 10:09 39.77736 -11.64769 36878 ft 451 kts 311°
2026-04-28 10:10 39.79843 -11.67781 37000 ft 450 kts 311°
2026-04-28 10:10 39.81930 -11.70764 37122 ft 449 kts 311°
2026-04-28 10:10 39.84034 -11.73775 37239 ft 448 kts 311°
2026-04-28 10:10 39.86119 -11.76762 37357 ft 447 kts 311°
2026-04-28 10:11 39.88199 -11.79746 37470 ft 446 kts 311°
2026-04-28 10:11 39.90290 -11.82748 37587 ft 445 kts 311°
2026-04-28 10:11 39.92348 -11.85705 37705 ft 444 kts 311°
2026-04-28 10:11 39.94422 -11.88689 37822 ft 443 kts 311°
2026-04-28 10:12 39.98547 -11.94630 37883 ft 445 kts 311°
2026-04-28 10:12 40.02696 -12.00620 37902 ft 447 kts 311°
2026-04-28 10:13 40.06866 -12.06650 37906 ft 450 kts 311°
2026-04-28 10:13 40.11052 -12.12715 37909 ft 452 kts 311°
2026-04-28 10:14 40.15252 -12.18815 37913 ft 453 kts 311°
2026-04-28 10:14 40.19460 -12.24936 37914 ft 454 kts 311°
2026-04-28 10:15 40.23679 -12.31087 37912 ft 455 kts 311°
2026-04-28 10:15 40.27898 -12.37250 37922 ft 456 kts 311°
2026-04-28 10:16 40.32102 -12.43403 37924 ft 457 kts 311°
2026-04-28 10:16 40.36326 -12.49597 37918 ft 457 kts 311°
2026-04-28 10:17 40.40559 -12.55820 37916 ft 458 kts 311°
2026-04-28 10:17 40.44786 -12.62044 37928 ft 458 kts 311°
2026-04-28 10:18 40.49025 -12.68298 37931 ft 458 kts 311°
2026-04-28 10:18 40.53243 -12.74536 37937 ft 458 kts 311°
2026-04-28 10:19 40.57467 -12.80795 37938 ft 459 kts 311°
2026-04-28 10:19 40.61681 -12.87053 37940 ft 459 kts 311°
2026-04-28 10:20 40.65898 -12.93328 37953 ft 459 kts 311°
2026-04-28 10:20 40.70118 -12.99618 37966 ft 459 kts 311°
2026-04-28 10:21 40.74325 -13.05904 37961 ft 459 kts 311°
2026-04-28 10:21 40.78536 -13.12209 37973 ft 459 kts 311°
2026-04-28 10:22 40.82735 -13.18509 37975 ft 458 kts 311°
2026-04-28 10:22 40.86926 -13.24810 37973 ft 458 kts 311°
2026-04-28 10:23 40.91105 -13.31105 37971 ft 457 kts 311°
2026-04-28 10:23 40.95280 -13.37410 37970 ft 457 kts 311°
2026-04-28 10:24 40.99461 -13.43734 37972 ft 457 kts 311°
2026-04-28 10:24 41.03656 -13.50094 37976 ft 457 kts 311°
2026-04-28 10:25 41.07824 -13.56428 37963 ft 457 kts 311°
2026-04-28 10:25 41.11967 -13.62735 37972 ft 457 kts 311°
2026-04-28 10:26 41.16148 -13.69112 37976 ft 457 kts 311°
2026-04-28 10:26 41.20289 -13.75445 37974 ft 457 kts 311°
2026-04-28 10:27 41.24435 -13.81797 37988 ft 457 kts 311°